Owosso, MI

8:14 AM EDT on May 21, 2018 (GMT -0400)
Owosso

Weather History for KRNP - May, 2013

Change the Weather History Date:

Sunday, May 12, 2013

  Actual Average (KFNT) Record (KFNT)
Temperature  
Mean Temperature 40 °F -  
Max Temperature 47 °F 65 °F 88 °F (1991)
Min Temperature 32 °F 45 °F 29 °F (1946)
Degree Days  
Heating Degree Days 26    
Moisture  
Dew Point 28 °F    
Average Humidity 62    
Maximum Humidity 86    
Minimum Humidity 40    
Precipitation  
Precipitation 0.00 in - - ()
Sea Level Pressure  
Sea Level Pressure 29.96 in    
Wind  
Wind Speed 13 mph (West)    
Max Wind Speed 24 mph    
Max Gust Speed 34 mph    
Visibility 10 miles    
Events Rain    
Averages and records for this station are not official NWS values.
T = Trace of Precipitation, MM = Missing Value Source: NWS Daily Summary

Daily Weather History Graph

Daily Weather History Graph

Search for Another Location

Airport or City:

Astronomy

May. 12, 2013 Rise Set
Actual Time 6:16 AM EDT 8:50 PM EDT
Civil Twilight 5:44 AM EDT 9:22 PM EDT
Nautical Twilight 5:03 AM EDT 10:03 PM EDT
Astronomical Twilight 4:18 AM EDT 10:49 PM EDT
Moon 8:09 AM EDT (5/12) 11:17 PM EDT (5/12)
Length of Visible Light 15h 38m
Length of Day
14h 33m
Waxing Crescent, 6% of the Moon is Illuminated
May 12
Waxing Crescent
May 18
First Quarter
May 25
Full
May 31
Last Quarter
Jun 8
New

Hourly Weather History & Observations

Time (EDT) Temp. Windchill Dew Point Humidity Pressure Visibility Wind Dir Wind Speed Gust Speed Precip Events Conditions
12:15 AM 39.6 °F 33.5 °F 34.7 °F 83% 29.88 in 10.0 mi WSW 9.2 mph - N/A   Clear
12:35 AM 39.2 °F 33.6 °F 34.7 °F 84% 29.88 in 10.0 mi WSW 8.1 mph - N/A   Clear
12:54 AM 38.8 °F 33.8 °F 34.5 °F 84% 29.88 in 10.0 mi WSW 6.9 mph - N/A   Clear
1:15 AM 38.7 °F 34.3 °F 34.0 °F 83% 29.88 in 10.0 mi WSW 5.8 mph - N/A   Clear
1:35 AM 38.5 °F 33.4 °F 33.6 °F 83% 29.87 in 10.0 mi WSW 6.9 mph - N/A   Clear
1:54 AM 39.0 °F 31.8 °F 33.1 °F 79% 29.88 in 10.0 mi WSW 11.5 mph 18.4 mph N/A   Clear
2:15 AM 39.2 °F 32.0 °F 32.9 °F 78% 29.87 in 10.0 mi WSW 11.5 mph - N/A   Clear
2:35 AM 39.2 °F 32.5 °F 32.9 °F 78% 29.87 in 10.0 mi WSW 10.4 mph 17.3 mph N/A   Clear
2:54 AM 38.8 °F 31.2 °F 32.9 °F 79% 29.87 in 10.0 mi West 12.7 mph 20.7 mph N/A   Clear
3:15 AM 38.3 °F 31.4 °F 32.5 °F 80% 29.87 in 10.0 mi West 10.4 mph - N/A   Clear
3:34 AM 38.3 °F 31.4 °F 32.2 °F 79% 29.86 in 10.0 mi West 10.4 mph - N/A   Clear
3:55 AM 37.9 °F 30.0 °F 32.0 °F 79% 29.86 in 10.0 mi West 12.7 mph 17.3 mph N/A   Clear
4:14 AM 37.8 °F 30.2 °F 32.0 °F 80% 29.86 in 10.0 mi West 11.5 mph 16.1 mph N/A   Scattered Clouds
4:35 AM 38.3 °F 30.1 °F 32.0 °F 78% 29.85 in 10.0 mi WSW 13.8 mph 19.6 mph N/A   Scattered Clouds
4:55 AM 37.8 °F 29.0 °F 32.0 °F 80% 29.86 in 10.0 mi West 15.0 mph - N/A   Clear
5:35 AM 37.6 °F 29.6 °F 32.0 °F 80% 29.86 in 10.0 mi West 12.7 mph 17.3 mph N/A   Scattered Clouds
5:54 AM 37.8 °F 28.3 °F 32.0 °F 80% 29.86 in 10.0 mi West 17.3 mph 21.9 mph N/A   Scattered Clouds
6:14 AM 37.6 °F 28.8 °F 31.6 °F 79% 29.87 in 10.0 mi West 15.0 mph 18.4 mph N/A   Clear
6:35 AM 38.3 °F 31.4 °F 31.6 °F 77% 29.87 in 10.0 mi West 10.4 mph - N/A   Mostly Cloudy
6:54 AM 39.2 °F 31.6 °F 32.0 °F 75% 29.88 in 10.0 mi West 12.7 mph 18.4 mph N/A   Overcast
7:15 AM 38.5 °F 30.3 °F 32.2 °F 78% 29.88 in 10.0 mi West 13.8 mph 20.7 mph N/A   Mostly Cloudy
7:35 AM 39.2 °F 30.2 °F 31.3 °F 73% 29.88 in 10.0 mi West 17.3 mph 23.0 mph N/A   Scattered Clouds
7:54 AM 40.6 °F 32.7 °F 30.7 °F 68% 29.89 in 10.0 mi WNW 15.0 mph 20.7 mph N/A   Scattered Clouds
8:15 AM 41.9 °F 32.6 °F 31.1 °F 66% 29.89 in 10.0 mi West 21.9 mph 27.6 mph N/A   Mostly Cloudy
8:35 AM 41.2 °F 32.7 °F 30.4 °F 65% 29.89 in 10.0 mi West 17.3 mph 26.5 mph N/A   Mostly Cloudy
8:54 AM 42.1 °F 33.9 °F 29.7 °F 61% 29.90 in 10.0 mi West 17.3 mph 25.3 mph N/A   Overcast
9:15 AM 41.2 °F 31.9 °F 28.8 °F 61% 29.91 in 10.0 mi West 20.7 mph 26.5 mph N/A   Overcast
9:34 AM 41.4 °F 34.3 °F 28.8 °F 61% 29.92 in 10.0 mi WNW 12.7 mph 26.5 mph N/A   Overcast
9:55 AM 41.9 °F 32.3 °F 28.6 °F 59% 29.92 in 10.0 mi West 23.0 mph 29.9 mph N/A   Overcast
10:15 AM 42.8 °F 34.8 °F 29.1 °F 58% 29.93 in 10.0 mi West 17.3 mph 24.2 mph N/A   Overcast
10:34 AM 43.5 °F 35.8 °F 28.6 °F 56% 29.92 in 10.0 mi West 17.3 mph 27.6 mph N/A   Overcast
10:55 AM 43.9 °F 35.7 °F 28.8 °F 55% 29.93 in 10.0 mi WNW 19.6 mph 27.6 mph N/A   Overcast
11:14 AM 44.2 °F 36.7 °F 28.8 °F 55% 29.93 in 10.0 mi West 17.3 mph 25.3 mph N/A   Mostly Cloudy
11:35 AM 45.1 °F 37.9 °F 26.8 °F 49% 29.93 in 10.0 mi West 17.3 mph 26.5 mph N/A   Mostly Cloudy
11:55 AM 46.9 °F - 27.1 °F 46% 29.93 in 10.0 mi WNW 17.3 mph 25.3 mph N/A   Mostly Cloudy
12:14 PM 47.8 °F - 29.1 °F 48% 29.93 in 10.0 mi West 17.3 mph 26.5 mph N/A   Mostly Cloudy
12:35 PM 46.4 °F 39.8 °F 29.3 °F 51% 29.94 in 10.0 mi West 16.1 mph 25.3 mph N/A   Mostly Cloudy
12:54 PM 46.2 °F 39.0 °F 27.5 °F 48% 29.94 in 10.0 mi West 18.4 mph 28.8 mph N/A   Mostly Cloudy
1:14 PM 45.3 °F 37.6 °F 26.4 °F 48% 29.94 in 10.0 mi West 19.6 mph 31.1 mph N/A Rain Light Rain
1:35 PM 45.3 °F 38.1 °F 27.5 °F 50% 29.95 in 10.0 mi WNW 17.3 mph 29.9 mph N/A   Overcast
1:54 PM 46.0 °F 37.6 °F 26.8 °F 47% 29.96 in 10.0 mi West 24.2 mph 32.2 mph N/A   Overcast
2:15 PM 45.3 °F 37.3 °F 27.0 °F 49% 29.96 in 10.0 mi West 20.7 mph 33.4 mph N/A   Overcast
2:35 PM 44.6 °F 35.7 °F 25.9 °F 48% 29.97 in 10.0 mi West 24.2 mph 34.5 mph N/A   Overcast
2:54 PM 45.0 °F 37.1 °F 24.6 °F 45% 29.98 in 10.0 mi WNW 19.6 mph 33.4 mph N/A   Overcast
3:15 PM 43.0 °F 34.8 °F 26.1 °F 51% 29.99 in 10.0 mi WNW 18.4 mph 29.9 mph N/A   Overcast
3:34 PM 42.4 °F 34.1 °F 25.5 °F 51% 30.00 in 10.0 mi West 18.4 mph 31.1 mph N/A   Overcast
3:55 PM 42.3 °F 33.1 °F 26.1 °F 53% 30.01 in 10.0 mi WNW 21.9 mph 27.6 mph N/A   Overcast
4:15 PM 42.8 °F 34.3 °F 24.1 °F 48% 30.01 in 10.0 mi WNW 19.6 mph 25.3 mph N/A   Overcast
4:34 PM 42.8 °F 34.3 °F 24.8 °F 49% 30.01 in 10.0 mi WNW 19.6 mph 26.5 mph N/A   Overcast
4:55 PM 42.3 °F 33.6 °F 23.7 °F 48% 30.02 in 10.0 mi West 19.6 mph 28.8 mph N/A   Overcast
5:15 PM 43.3 °F 34.7 °F 24.3 °F 47% 30.02 in 10.0 mi WNW 20.7 mph 26.5 mph N/A   Overcast
5:34 PM 42.3 °F 33.3 °F 23.0 °F 47% 30.02 in 10.0 mi WNW 20.7 mph 25.3 mph N/A   Overcast
5:55 PM 43.9 °F 35.4 °F 22.5 °F 43% 30.03 in 10.0 mi WNW 20.7 mph 28.8 mph N/A   Overcast
6:15 PM 43.3 °F 35.0 °F 21.9 °F 43% 30.03 in 10.0 mi West 19.6 mph 26.5 mph N/A   Overcast
6:34 PM 42.8 °F 34.5 °F 21.2 °F 42% 30.04 in 10.0 mi WNW 18.4 mph 27.6 mph N/A   Overcast
6:55 PM 42.3 °F 35.1 °F 21.0 °F 43% 30.04 in 10.0 mi WNW 13.8 mph 26.5 mph N/A   Overcast
7:14 PM 43.0 °F 34.5 °F 19.9 °F 40% 30.04 in 10.0 mi WNW 19.6 mph 26.5 mph N/A   Overcast
7:35 PM 42.6 °F 34.6 °F 19.8 °F 40% 30.05 in 10.0 mi WNW 17.3 mph 25.3 mph N/A   Scattered Clouds
7:55 PM 41.9 °F 35.0 °F 20.5 °F 42% 30.05 in 10.0 mi WNW 12.7 mph 23.0 mph N/A   Clear
8:14 PM 41.5 °F 34.6 °F 21.6 °F 45% 30.06 in 10.0 mi WNW 12.7 mph 16.1 mph N/A   Clear
8:35 PM 40.1 °F 33.2 °F 22.3 °F 49% 30.06 in 10.0 mi NW 11.5 mph - N/A   Clear
8:55 PM 40.1 °F 36.1 °F 22.8 °F 50% 30.07 in 10.0 mi WNW 5.8 mph - N/A   Scattered Clouds
9:14 PM 40.1 °F 34.7 °F 23.0 °F 51% 30.07 in 10.0 mi NW 8.1 mph - N/A   Overcast
9:35 PM 38.7 °F 36.3 °F 23.9 °F 55% 30.07 in 10.0 mi NW 3.5 mph - N/A   Scattered Clouds
9:55 PM 38.3 °F - 24.3 °F 57% 30.07 in 10.0 mi Calm Calm - N/A   Scattered Clouds
10:14 PM 36.0 °F - 26.2 °F 68% 30.08 in 10.0 mi Calm Calm - N/A   Clear
10:35 PM 34.2 °F - 26.4 °F 73% 30.08 in 10.0 mi Calm Calm - N/A   Clear
10:54 PM 33.8 °F - 26.4 °F 74% 30.09 in 10.0 mi Calm Calm - N/A   Clear
11:14 PM 33.3 °F - 27.1 °F 78% 30.09 in 10.0 mi Calm Calm - N/A   Clear
11:35 PM 32.2 °F - 28.0 °F 85% 30.09 in 10.0 mi Calm Calm - N/A   Clear
11:54 PM 32.0 °F - 28.2 °F 86% 30.09 in 10.0 mi Calm Calm - N/A   Clear